Showing default

TOMORROW-S3, 62392

Orbit data source: Space-Track

TOMORROW-S3, 62392 is a payload satellite owned by Tomorrow.io (US) in LEO that was launched on Sat, 21 Dec 2024 UTC via an FALCON 9 launch vehicle from the Air Force Western Test Range (AFWTR). Payload-class satellites include a variety of spacecraft equipped with specific instruments for various scientific and technological missions. These include communications satellites like Starlink; space stations such as the ISS; scientific satellites like the Hubble; Earth observation satellites from companies like Planet Labs, Umbra, and HawkEye 360; GPS; miniature CubeSats for education and research; and military/defense satellites.

Loading next visibility...
Identifier
62392, 2024-247R
Orbit
LEO
Country
Flag of USUS
Related business
Manufacturer
Blue Canyon
Mission
Operational Commercial Weather
Bus & Motor
CUBESAT 6U, Unknown motor
Mass
12 kg wet, 12 kg dry
Launch date (UTC)
2024-12-21 (1 year ago)
Launch vehicle
FALCON 9
Launch site
Air Force Western Test Range (AFWTR)
Object type
Payload
Rocket body
Debris
Shape & HBR
Box + 2 Pan, 1.0 m
Radar Cross Section
0.138 m², Small (<0.1 m²)

Expand to show TLE details & history
Last TLE update: 13 hours ago

TLE from 13 hours ago
0 TOMORROW-S3
1 62392U 24247R   26094.06184572  .00013132  00000-0  47964-3 0  9998
2 62392  45.0046 338.3721 0002865 254.6323 105.4243 15.28136223 71613
Epoch: 2026-04-04T01:29Z
TLE epoch observation values (Epoch: 2026-04-04T01:29:03.470Z)
Latitude
-0.00007°
Longitude
123.72055°
Altitude
481.906 km
Speed
7.626 km/s
True Right ascension
22h 33m 29s
True Declination
0° 00' 00"
Sunlit
Object was in daylight at epoch
Visualization orbit readout
Latitude
Unknown
Longitude
Unknown
Altitude
Unknown
Speed
Unknown
Apparent Right ascension
Unknown
Apparent Declination
Unknown
Sunlit
N/A
Visualization observer readout
Local Sidereal Time
20:15:42
Azimuth
Unknown
Elevation
Unknown
Doppler factor
Unknown
Orbital elements
Apogee altitude
484.959 km
Perigee altitude
481.027 km
Semi-major axis
6,861.13 km
Eccentricity
0.00029
Inclination
45.0046°
RAAN
338.3721°
Arg. of periapsis
254.6323°
True anomaly
105.45595°
Mean anomaly
105.4243°
Eccentric anomaly
105.44012°
Mean motion
3.819 °/min
Orbital period
94.27 mins
BSTAR
0.00047964
Loading maneuver chart data...
Computing Atmospheric mass density...
Loading historical data...
Loading historical data...
Loading historical data...
Loading historical data...
Loading historical data...
Loading historical data...
Loading historical data...

Documentation

Showing up to 5 results
|